Regional Weather Roundup
Issued by NWS

Home | Current Version | Previous Version | Graphics & Text | Print | Product List | Glossary Off
Versions: 1 2 3 4 5 6 7 8 9 10 11 12 13 14 15 16 17 18 19 20 21 22 23 24 25 26 27 28 29 30 31 32 33 34 35 36 37 38 39 40 41 42 43 44 45 46 47 48 49 50

000
ASUS43 KTOP 212008
RWRKS

WEATHER ROUNDUP FOR KANSAS
NATIONAL WEATHER SERVICE GOODLAND KS
300 PM CDT SAT APR 21 2018

NOTE:  "FAIR" INDICATES FEW OR NO CLOUDS BELOW 12,000 FEET WITH NO
SIGNIFICANT WEATHER AND/OR OBSTRUCTIONS TO VISIBILITY.

KSZ001>006-013>018-027>032-041>047-212100-
NORTHWEST KANSAS

CITY           SKY/WX    TMP DP  RH WIND       PRES   REMARKS
GOODLAND       CLOUDY    42  39  89 NE12      30.17S
HAYS           CLOUDY    46  43  89 E13       30.16F
HILL CITY      CLOUDY    47  44  90 NE12      30.19S
RUSSELL        LGT RAIN  46  46 100 NE14      30.15F
$$

KSZ061>065-074>080-084>089-212100-
SOUTHWEST KANSAS

CITY           SKY/WX    TMP DP  RH WIND       PRES   REMARKS
DODGE CITY     CLOUDY    46  43  89 NE12      30.11S FOG
ELKHART        CLOUDY    48  44  88 NE15      30.12R
GARDEN CITY    CLOUDY    46  43  87 NE16      30.12R
GREAT BEND     LGT RAIN  45  44  97 E10       30.15S FOG
LIBERAL        CLOUDY    46  44  93 N12       30.11S
PRATT          DRIZZLE   45  44  94 E7        30.12S
$$

KSZ066>073-081>083-090>101-212100-
SOUTHEAST KANSAS

CITY           SKY/WX    TMP DP  RH WIND       PRES   REMARKS
CHANUTE        CLOUDY    59  40  49 E6        30.10F
COFFEYVILLE    RAIN      52  49  89 N8        30.08F
HUTCHINSON     CLOUDY    48  46  93 NE10      30.12F
MEDICINE LODGE   N/A     47  45  93 E7        30.11R
NEWTON         LGT RAIN  44  43  96 E12       30.14F
PARSONS        LGT RAIN  56  49  77 NW6       30.09F
WICHITA INTL   LGT RAIN  47  45  93 NE14      30.13R FOG
WICHITA JABRA  LGT RAIN  44  44 100 NE13      30.13S
WICHITA MCCONL LGT RAIN  45  44  96 NE14G23   30.12S
WINFIELD       RAIN      46  45  96 NE13      30.14R FOG
$$

KSZ007>012-019>026-033>040-048>060-102>105-212100-
NORTHEAST KANSAS

CITY           SKY/WX    TMP DP  RH WIND       PRES   REMARKS
CONCORDIA      CLOUDY    45  40  82 E12G21    30.20S
EMPORIA        CLOUDY    48  41  76 NE13      30.15F
LAWRENCE       CLOUDY    55  36  48 N8        30.16F
MANHATTAN      LGT RAIN  47  44  90 NE9       30.18F
MARYSVILLE     LGT RAIN  46  43  87 E12       30.21F
OLATHE IND     PTSUNNY   60  35  39 NE9       30.14F
OLATHE EXE     CLOUDY    60  35  39 NE8       30.13F
SALINA         CLOUDY    48  45  89 NE10      30.17F
TOPEKA BILLARD CLOUDY    50  43  77 N12       30.18F
TOPEKA FORBES  CLOUDY    51  42  71 N13       30.17S
$$




USA.gov is the U.S. government's official web portal to all federal, state and local government web resources and services.